Vorticity
4 3 7 8 9 7 6 5 5 6 6 6 6 6 6 7 7 8 8 7 7 8
4 4 9 12 7 6 5 6 6 7 7 7 7 6 6 7 8 9 9 8 7 7
6 12 12 9 7 6 6 6 6 7 7 8 8 7 8 8 8 8 8 8 8 8
13 12 8 7 6 6 6 6 7 7 8 9 9 10 10 9 9 9 9 10 9 9
9 7 7 7 6 6 8 8 10 11 13 12 12 11 11 11 11 10 9 9 9 9
7 7 6 7 6 6 9 11 15 16 15 14 12 12 12 11 11 11 11 10 9 9
5 5 4 6 7 10 13 14 13 10 9 9 10 11 10 8 7 7 8 8 9 11
3 -0 5 8 11 15 16 14 12 10 10 10 8 5 5 6 8 10 12 12 13 11
5 9 7 17 18 14 10 7 7 8 7 7 8 8 8 11 11 11 10 11 13 13
7 17 17 11 8 8 7 8 8 8 9 8 7 8 11 11 10 9 9 9 12 13
18 9 10 12 10 9 9 8 9 10 9 8 9 11 12 12 14 13 11 10 16 15
7 12 10 8 9 8 9 10 12 8 8 10 15 15 14 12 11 11 10 15 15 15
10 10 12 11 9 10 10 12 10 8 4 3 4 7 15 14 13 12 18 19 16 14
11 11 10 9 10 10 11 12 9 3 6 5 10 13 12 15 14 12 12 13 15 17
Height
3122 3120 3118 3115 3112 3109 3106 3103 3101 3098 3094 3091 3088 3084 3081 3078 3075 3072 3068 3065 3063 3060
3116 3114 3111 3109 3106 3103 3100 3098 3094 3091 3088 3085 3081 3077 3074 3071 3068 3065 3061 3059 3056 3053
3110 3107 3105 3102 3100 3097 3093 3090 3087 3083 3080 3077 3073 3069 3067 3063 3060 3057 3054 3052 3049 3046
3103 3100 3098 3096 3093 3089 3086 3082 3079 3075 3073 3069 3065 3061 3059 3056 3053 3050 3047 3044 3042 3039
3097 3094 3091 3089 3086 3082 3079 3075 3071 3068 3064 3061 3057 3053 3051 3049 3046 3043 3040 3037 3034 3031
3091 3088 3085 3082 3078 3075 3071 3067 3064 3060 3056 3053 3050 3047 3044 3041 3038 3035 3032 3029 3026 3023
3084 3081 3078 3075 3071 3067 3064 3060 3056 3052 3049 3046 3043 3040 3036 3033 3030 3027 3024 3020 3017 3015
3077 3074 3070 3066 3062 3058 3055 3052 3048 3045 3042 3039 3036 3033 3029 3026 3022 3019 3015 3012 3009 3006
3069 3065 3061 3058 3054 3050 3047 3043 3040 3037 3034 3032 3029 3025 3022 3018 3014 3011 3007 3003 3000 2996
3060 3056 3052 3048 3045 3042 3038 3035 3032 3029 3027 3025 3021 3017 3013 3008 3005 3002 2999 2994 2990 2987
3050 3046 3043 3039 3036 3033 3031 3028 3026 3023 3019 3016 3013 3007 3004 2999 2995 2993 2990 2985 2981 2977
3040 3038 3035 3032 3029 3027 3024 3021 3017 3015 3011 3008 3005 2999 2995 2990 2986 2983 2980 2975 2970 2968
3031 3029 3027 3025 3022 3019 3016 3013 3010 3007 3003 3000 2996 2992 2987 2981 2978 2974 2970 2966 2962 2959
3023 3021 3018 3016 3013 3010 3008 3005 3003 3000 2996 2992 2988 2983 2978 2974 2970 2965 2962 2958 2954 2951